Date String (YYYY-MM-DD hh:mm:ss) UTC,Instrument flags,Ambient pressure (hPa),Sample flow (lpm),Bypass flow (lpm),Sample temperature (°C),Ambient temperature (°C),ASC tube jacket temperature (°C),LED temperature (°C),Box temperature (°C),Sample RH (%),Span deviation,Mass concentration (μg/m³),Mass concentration (μg/m³),Mass concentration (μg/m³)
DateTimeUTC,F1_M11,P_M11,Q1_M11,Q2_M11,T1_M11,T2_M11,T3_M11,T4_M11,T5_M11,U1_M11,ZSPAN_M11,X0_M11,X2_M11,X1_M11
2022-03-05 01:00:00,,0814.0,5.00,0.00,29.2,28.5,00.0,38.3,30.9,09.2,0000.0,0008.34,0003.72,0002.87
2022-03-05 01:01:00,,0813.8,5.00,0.00,29.2,28.5,00.0,38.3,30.9,09.3,0000.0,0008.40,0003.72,0002.88
2022-03-05 01:02:00,,0813.8,4.99,0.00,29.2,28.4,00.0,38.3,30.9,09.3,0000.0,0008.73,0003.77,0002.91
2022-03-05 01:03:00,,0813.8,5.00,0.00,29.2,28.4,00.0,38.3,31.0,09.2,0000.0,0008.76,0003.79,0002.94
2022-03-05 01:04:00,,0813.8,5.02,0.00,29.2,28.4,00.0,38.3,30.9,09.3,0000.0,0008.82,0003.82,0002.96
2022-03-05 01:05:00,,0813.8,4.99,0.00,29.2,28.4,00.0,38.3,30.9,09.4,0000.0,0008.73,0003.77,0002.95
2022-03-05 01:06:00,,0813.8,5.01,0.00,29.2,28.4,00.0,38.3,30.9,09.3,0000.0,0008.67,0003.74,0002.96
2022-03-05 01:07:00,,0813.8,4.98,0.00,29.2,28.4,00.0,38.3,30.9,09.2,0000.0,0008.81,0003.75,0002.96
2022-03-05 01:08:00,,0813.8,5.02,0.00,29.2,28.4,00.0,38.3,30.9,09.2,0000.0,0008.86,0003.76,0002.94
2022-03-05 01:09:00,,0813.8,4.99,0.00,29.2,28.4,00.0,38.3,30.9,09.2,0000.0,0008.23,0003.72,0002.94
2022-03-05 01:10:00,,0813.8,5.01,0.00,29.2,28.4,00.0,38.3,31.0,09.2,0000.0,0008.00,0003.69,0002.96
2022-03-05 01:11:00,,0813.8,4.99,0.00,29.2,28.4,00.0,38.3,30.9,09.2,0000.0,0008.13,0003.71,0002.98
2022-03-05 01:12:00,,0813.8,5.00,0.00,29.2,28.4,00.0,38.3,30.9,09.4,0000.0,0008.20,0003.74,0002.99
2022-03-05 01:13:00,,0813.8,5.01,0.00,29.2,28.4,00.0,38.3,30.9,09.4,0000.0,0007.91,0003.72,0002.98
2022-03-05 01:14:00,,0813.8,5.00,0.00,29.2,28.5,00.0,38.3,30.9,09.4,0000.0,0007.94,0003.67,0002.94
2022-03-05 01:15:00,,0814.0,4.99,0.00,29.2,28.5,00.0,38.3,30.9,09.4,0000.0,0008.18,0003.61,0002.92
2022-03-05 01:16:00,,0813.9,5.01,0.00,29.2,28.5,00.0,38.3,30.9,09.5,0000.0,0008.19,0003.63,0002.92
2022-03-05 01:17:00,,0813.8,5.00,0.00,29.2,28.4,00.0,38.3,30.9,09.4,0000.0,0008.98,0003.65,0002.92
2022-03-05 01:18:00,,0814.0,5.01,0.00,29.2,28.4,00.0,38.3,30.9,09.3,0000.0,0009.09,0003.66,0002.92
2022-03-05 01:19:00,,0814.0,4.99,0.00,29.2,28.4,00.0,38.3,30.9,09.4,0000.0,0009.07,0003.67,0002.93
2022-03-05 01:20:00,,0814.1,5.01,0.00,29.2,28.4,00.0,38.3,30.9,09.4,0000.0,0009.66,0003.67,0002.95
2022-03-05 01:21:00,,0813.9,5.01,0.00,29.2,28.4,00.0,38.3,30.9,09.3,0000.0,0009.88,0003.72,0002.96
2022-03-05 01:22:00,,0814.0,5.00,0.00,29.2,28.4,00.0,38.3,30.9,09.3,0000.0,0009.79,0003.71,0002.98
2022-03-05 01:23:00,,0814.0,4.99,0.00,29.2,28.4,00.0,38.3,30.9,09.3,0000.0,0009.61,0003.67,0002.98
2022-03-05 01:24:00,,0813.8,5.02,0.00,29.2,28.4,00.0,38.3,30.9,09.3,0000.0,0009.44,0003.63,0002.98
2022-03-05 01:25:00,,0814.0,5.00,0.00,29.2,28.4,00.0,38.3,30.9,09.2,0000.0,0009.41,0003.65,0003.00
2022-03-05 01:26:00,,0813.8,5.00,0.00,29.2,28.4,00.0,38.3,30.9,09.3,0000.0,0009.07,0003.72,0003.05
2022-03-05 01:27:00,,0813.8,5.00,0.00,29.2,28.4,00.0,38.3,30.9,09.4,0000.0,0009.29,0003.76,0003.08
2022-03-05 01:28:00,,0813.9,4.99,0.00,29.2,28.4,00.0,38.2,30.9,09.3,0000.0,0008.99,0003.78,0003.12
2022-03-05 01:29:00,,0813.8,5.01,0.00,29.2,28.4,00.0,38.2,30.9,09.3,0000.0,0008.73,0003.79,0003.16
2022-03-05 01:30:00,,0813.8,4.99,0.00,29.2,28.4,00.0,38.2,30.9,09.3,0000.0,0008.80,0003.86,0003.21
2022-03-05 01:31:00,,0813.8,5.01,0.00,29.2,28.4,00.0,38.2,30.9,09.3,0000.0,0008.58,0003.96,0003.26
2022-03-05 01:32:00,,0813.8,4.98,0.00,29.2,28.4,00.0,38.2,30.9,09.3,0000.0,0008.67,0004.07,0003.32
2022-03-05 01:33:00,,0813.7,5.02,0.00,29.2,28.4,00.0,38.2,30.9,09.3,0000.0,0008.93,0004.15,0003.37
2022-03-05 01:34:00,,0813.8,4.99,0.00,29.1,28.4,00.0,38.2,30.9,09.4,0000.0,0009.89,0004.28,0003.42
2022-03-05 01:35:00,,0813.7,5.00,0.00,29.2,28.4,00.0,38.2,30.9,09.4,0000.0,0010.41,0004.38,0003.48
2022-03-05 01:36:00,,0813.7,5.01,0.00,29.1,28.3,00.0,38.2,30.9,09.3,0000.0,0010.96,0004.46,0003.54
2022-03-05 01:37:00,,0813.7,4.99,0.00,29.1,28.3,00.0,38.2,30.9,09.4,0000.0,0011.23,0004.54,0003.59
2022-03-05 01:38:00,,0813.7,5.01,0.00,29.1,28.3,00.0,38.2,30.9,09.4,0000.0,0011.32,0004.60,0003.66
2022-03-05 01:39:00,,0813.7,4.98,0.00,29.1,28.3,00.0,38.2,30.9,09.4,0000.0,0011.28,0004.62,0003.70
2022-03-05 01:40:00,,0813.7,5.01,0.00,29.1,28.3,00.0,38.2,30.8,09.5,0000.0,0011.10,0004.63,0003.73
2022-03-05 01:41:00,,0813.8,4.98,0.00,29.1,28.3,00.0,38.2,30.9,09.5,0000.0,0011.07,0004.66,0003.76
2022-03-05 01:42:00,,0813.8,4.99,0.00,29.1,28.3,00.0,38.2,30.9,09.5,0000.0,0011.35,0004.67,0003.77
2022-03-05 01:43:00,,0813.8,5.00,0.00,29.1,28.3,00.0,38.2,30.8,09.6,0000.0,0012.15,0004.66,0003.78
2022-03-05 01:44:00,,0813.8,4.99,0.00,29.1,28.3,00.0,38.2,30.9,09.5,0000.0,0012.94,0004.70,0003.80
2022-03-05 01:45:00,,0813.9,5.02,0.00,29.1,28.3,00.0,38.2,30.9,09.6,0000.0,0012.84,0004.72,0003.82
2022-03-05 01:46:00,,0813.9,4.98,0.00,29.1,28.3,00.0,38.2,30.8,09.6,0000.0,0012.95,0004.69,0003.84
2022-03-05 01:47:00,,0813.9,5.01,0.00,29.1,28.3,00.0,38.2,30.8,09.6,0000.0,0012.57,0004.69,0003.84
2022-03-05 01:48:00,,0813.8,5.00,0.00,29.1,28.3,00.0,38.2,30.9,09.6,0000.0,0013.04,0004.69,0003.83
2022-03-05 01:49:00,,0813.8,5.00,0.00,29.1,28.3,00.0,38.2,30.9,09.6,0000.0,0013.23,0004.69,0003.81
2022-03-05 01:50:00,,0813.9,5.01,0.00,29.1,28.3,00.0,38.2,30.8,09.7,0000.0,0013.37,0004.69,0003.80
2022-03-05 01:51:00,,0814.0,4.99,0.00,29.1,28.3,00.0,38.2,30.8,09.7,0000.0,0013.47,0004.73,0003.81
2022-03-05 01:52:00,,0813.8,5.02,0.00,29.1,28.3,00.0,38.2,30.9,09.7,0000.0,0013.65,0004.74,0003.80
2022-03-05 01:53:00,,0814.1,4.99,0.00,29.1,28.3,00.0,38.2,30.9,09.7,0000.0,0013.45,0004.73,0003.79
2022-03-05 01:54:00,,0814.2,5.01,0.00,29.1,28.3,00.0,38.2,30.8,09.7,0000.0,0013.18,0004.73,0003.80
2022-03-05 01:55:00,,0814.2,4.99,0.00,29.1,28.3,00.0,38.2,30.8,09.6,0000.0,0012.28,0004.71,0003.79
2022-03-05 01:56:00,,0814.0,5.01,0.00,29.1,28.3,00.0,38.2,30.8,09.6,0000.0,0011.63,0004.64,0003.78
2022-03-05 01:57:00,,0813.9,5.00,0.00,29.1,28.3,00.0,38.2,30.8,09.6,0000.0,0011.40,0004.66,0003.80
2022-03-05 01:58:00,,0813.9,5.01,0.00,29.1,28.3,00.0,38.2,30.8,09.5,0000.0,0011.38,0004.66,0003.80
2022-03-05 01:59:00,,0814.2,4.99,0.00,29.1,28.3,00.0,38.2,30.8,09.5,0000.0,0010.71,0004.62,0003.80
